This is the latest recevied weather packets stored in our database for station/object DH5WR-10. If no packets are shown the sender has not sent any weather packets the latest 10 day(s).
| Time | Temp. | Humidity | Pressure | Rain* | Wind** | Luminosity | Snow |
|---|---|---|---|---|---|---|---|
| 1777238543 | 11.11° C | 50% | 1023.1 hPa | - | - | - | - |
| 1777237643 | 11.67° C | 49% | 1023.2 hPa | - | - | - | - |
| 1777236743 | 11.67° C | 49% | 1023.1 hPa | - | - | - | - |
| 1777235842 | 11.67° C | 49% | 1023 hPa | - | - | - | - |
| 1777234942 | 12.22° C | 48% | 1023 hPa | - | - | - | - |
| 1777234042 | 12.22° C | 47% | 1022.9 hPa | - | - | - | - |
| 1777233142 | 12.78° C | 45% | 1022.8 hPa | - | - | - | - |
| 1777232242 | 13.33° C | 44% | 1022.6 hPa | - | - | - | - |
| 1777231342 | 13.89° C | 42% | 1022.4 hPa | - | - | - | - |
| 1777230442 | 13.89° C | 42% | 1022.2 hPa | - | - | - | - |
| 1777229542 | 14.44° C | 41% | 1022.1 hPa | - | - | - | - |
| 1777228641 | 15° C | 40% | 1021.9 hPa | - | - | - | - |
| 1777227741 | 15° C | 40% | 1021.8 hPa | - | - | - | - |
| 1777226841 | 15.56° C | 38% | 1021.7 hPa | - | - | - | - |
| 1777225941 | 16.11° C | 36% | 1021.6 hPa | - | - | - | - |
| 1777225041 | 16.67° C | 37% | 1021.4 hPa | - | - | - | - |
| 1777224141 | 16.67° C | 36% | 1021.5 hPa | - | - | - | - |
| 1777223241 | 17.22° C | 36% | 1021.4 hPa | - | - | - | - |
| 1777222340 | 17.22° C | 35% | 1021.4 hPa | - | - | - | - |
| 1777221440 | 17.22° C | 34% | 1021.5 hPa | - | - | - | - |
| 1777220540 | 17.78° C | 34% | 1021.7 hPa | - | - | - | - |
| 1777219640 | 17.22° C | 32% | 1021.8 hPa | - | - | - | - |
| 1777218740 | 17.78° C | 32% | 1021.7 hPa | - | - | - | - |
| 1777217839 | 18.33° C | 31% | 1021.7 hPa | - | - | - | - |
| 1777216939 | 17.78° C | 31% | 1021.8 hPa | - | - | - | - |
* Rain since midnight (hover to see other rain measurements)
** Current wind speed in m/s (hover to see current wind gust speed)